Weather History for Jonesboro, AR

Change the Weather History Date:

Friday, October 5, 2012

  Actual Average Record
Temperature  
Mean Temperature 64 °F 65 °F  
Max Temperature 81 °F 77 °F 95 °F (1938)
Min Temperature 46 °F 53 °F 37 °F (1999)
Degree Days  
Heating Degree Days 1 3  
Month to date heating degree days 4 14  
Since 1 July heating degree days 10 32  
Cooling Degree Days 0 3  
Month to date cooling degree days 5 16  
Year to date cooling degree days 2310 1787  
Growing Degree Days 12 (Base 50)    
Moisture  
Dew Point 55 °F    
Average Humidity 78    
Maximum Humidity 97    
Minimum Humidity 58    
Precipitation  
Precipitation 0.83 in 0.13 in 2.80 in (1929)
Month to date precipitation 0.87 0.73  
Year to date precipitation 25.83 34.90  
Snow  
Snow 0.00 in - 0.00 in (2002)
Month to date snowfall 0.0  
Since 1 July snowfall 0.0  
Since 1 September snowfall 0.0  
Snow Depth 0.00 in    
Sea Level Pressure  
Sea Level Pressure 30.08 in    
Wind  
Wind Speed 6 mph (North)    
Max Wind Speed 22 mph    
Max Gust Speed 29 mph    
Visibility 8 miles    
Events Rain , Thunderstorm    
T = Trace of Precipitation, MM = Missing Value Source: NWS Daily Summary

Daily Weather History Graph

Daily Weather History Graph

Search for Another Location

Airport:

Trip Planner

Search our weather history database for the weather conditions in past years. The results will help you decide how hot, cold, wet, or windy it might be!

Date:

Astronomy

Oct. 05, 2012 Rise Set
Actual Time 7:01 AM CDT 6:39 PM CDT
Civil Twilight 6:35 AM CDT 7:05 PM CDT
Nautical Twilight 6:06 AM CDT 7:34 PM CDT
Astronomical Twilight 5:36 AM CDT 8:04 PM CDT
Moon 10:12 PM CDT (10/5) 11:59 AM CDT (10/5)
Length of Visible Light 12h 29m
Length of Day
11h 38m
Waning Gibbous, 74% of the Moon is Illuminated
Oct 5
Waning Gibbous
Oct 8
Last Quarter
Oct 15
New
Oct 21
First Quarter
Oct 29
Full

Hourly Weather History & Observations

Time (CDT) Temp. Windchill Dew Point Humidity Pressure Visibility Wind Dir Wind Speed Gust Speed Precip Events Conditions
12:53 AM 60.1 °F - 55.9 °F 86% 30.14 in 10.0 mi Calm Calm - N/A   Clear
1:53 AM 59.0 °F - 55.9 °F 90% 30.14 in 10.0 mi Calm Calm - N/A   Clear
2:53 AM 59.0 °F - 55.4 °F 88% 30.13 in 10.0 mi Calm Calm - N/A   Clear
3:53 AM 57.9 °F - 55.0 °F 90% 30.12 in 10.0 mi Calm Calm - N/A   Clear
4:53 AM 61.0 °F - 55.9 °F 83% 30.11 in 10.0 mi Calm Calm - N/A   Clear
5:53 AM 59.0 °F - 55.9 °F 90% 30.10 in 9.0 mi Calm Calm - N/A   Clear
6:27 AM 59.0 °F - 55.4 °F 88% 30.11 in 8.0 mi Calm Calm - N/A   Partly Cloudy
6:53 AM 57.9 °F - 55.9 °F 93% 30.12 in 6.0 mi Calm Calm - N/A   Clear
7:53 AM 61.0 °F - 59.0 °F 93% 30.11 in 3.0 mi Calm Calm - N/A   Scattered Clouds
8:53 AM 64.0 °F - 60.1 °F 87% 30.12 in 5.0 mi Calm Calm - N/A   Clear
9:53 AM 70.0 °F - 62.1 °F 76% 30.11 in 9.0 mi Calm Calm - N/A   Partly Cloudy
10:53 AM 73.9 °F - 62.1 °F 66% 30.08 in 10.0 mi SSE 3.5 mph - N/A   Mostly Cloudy
11:53 AM 79.0 °F - 62.1 °F 56% 30.06 in 10.0 mi SW 13.8 mph - N/A   Mostly Cloudy
12:53 PM 79.0 °F - 63.0 °F 58% 30.04 in 10.0 mi SW 13.8 mph - N/A   Clear
1:53 PM 77.0 °F - 64.0 °F 64% 29.97 in 10.0 mi South 11.5 mph - 0.00 in Rain Light Rain
2:53 PM 73.0 °F - 66.9 °F 81% 29.96 in 6.0 mi South 5.8 mph - 0.05 in Rain Light Rain
3:33 PM 71.6 °F - 66.2 °F 83% 29.95 in 8.0 mi North 8.1 mph - 0.02 in Rain , Thunderstorm Light Rain
3:53 PM 64.9 °F - 61.0 °F 87% 29.96 in 10.0 mi North 6.9 mph 19.6 mph 0.02 in   Mostly Cloudy
4:07 PM 64.4 °F - 60.8 °F 88% 29.97 in 8.0 mi North 4.6 mph - 0.01 in Rain , Thunderstorm Light Rain
4:34 PM 64.4 °F - 60.8 °F 88% 29.96 in 2.5 mi NNE 5.8 mph - 0.11 in Rain , Thunderstorm Thunderstorms and Rain
4:45 PM 64.4 °F - 60.8 °F 88% 29.97 in 5.0 mi NNW 6.9 mph - 0.12 in Rain , Thunderstorm Light Thunderstorms and Rain
4:53 PM 63.0 °F - 61.0 °F 93% 29.96 in 8.0 mi North 10.4 mph 16.1 mph 0.12 in Rain , Thunderstorm Light Rain
5:11 PM 62.6 °F - 60.8 °F 94% 30.00 in 5.0 mi NW 8.1 mph 18.4 mph 0.02 in Rain , Thunderstorm Thunderstorms and Rain
5:22 PM 60.8 °F - 57.2 °F 88% 29.98 in 8.0 mi NNE 10.4 mph - 0.04 in Rain , Thunderstorm Light Thunderstorms and Rain
5:38 PM 59.0 °F - 55.4 °F 88% 30.00 in 10.0 mi North 10.4 mph 16.1 mph 0.04 in Rain , Thunderstorm Light Rain
5:53 PM 57.0 °F - 54.0 °F 89% 30.01 in 6.0 mi North 16.1 mph 27.6 mph 0.08 in Rain , Thunderstorm Rain
6:01 PM 55.4 °F - 53.6 °F 94% 30.02 in 5.0 mi North 17.3 mph 28.8 mph 0.03 in Rain , Thunderstorm Heavy Thunderstorms and Rain
6:15 PM 53.6 °F - 53.6 °F 100% 30.04 in 6.0 mi North 15.0 mph 23.0 mph 0.08 in Rain , Thunderstorm Light Rain
6:26 PM 53.6 °F - 53.6 °F 100% 30.05 in 5.0 mi North 13.8 mph 20.7 mph 0.12 in Rain , Thunderstorm Rain
6:36 PM 53.6 °F - 51.8 °F 94% 30.06 in 1.8 mi North 16.1 mph 24.2 mph 0.24 in Rain , Thunderstorm Heavy Rain
6:40 PM 53.6 °F - 51.8 °F 94% 30.06 in 1.5 mi North 12.7 mph 26.5 mph 0.26 in Rain Heavy Rain
6:44 PM 53.6 °F - 51.8 °F 94% 30.06 in 2.0 mi North 12.7 mph 26.5 mph 0.26 in Rain , Thunderstorm Light Rain
6:53 PM 53.1 °F - 52.0 °F 96% 30.08 in 5.0 mi North 11.5 mph 23.0 mph 0.30 in Rain , Thunderstorm Heavy Rain
6:56 PM 53.6 °F - 51.8 °F 94% 30.09 in 5.0 mi NNW 9.2 mph 23.0 mph 0.01 in Rain , Thunderstorm Heavy Rain
7:05 PM 51.8 °F - 51.8 °F 100% 30.08 in 6.0 mi North 13.8 mph 21.9 mph 0.04 in Rain Heavy Rain
7:53 PM 51.1 °F - 48.9 °F 92% 30.11 in 10.0 mi North 11.5 mph 20.7 mph 0.22 in   Overcast
8:24 PM 50.0 °F - 48.2 °F 94% 30.13 in 10.0 mi NNE 17.3 mph 24.2 mph 0.00 in   Overcast
8:53 PM 50.0 °F - 48.9 °F 96% 30.14 in 10.0 mi NNE 10.4 mph 19.6 mph 0.00 in Rain Light Rain
9:10 PM 48.2 °F - 48.2 °F 100% 30.15 in 10.0 mi North 9.2 mph - 0.01 in Rain Light Rain
9:13 PM 48.2 °F - 48.2 °F 100% 30.15 in 10.0 mi North 9.2 mph - 0.01 in Rain Light Rain
9:24 PM 48.2 °F - 48.2 °F 100% 30.15 in 10.0 mi North 9.2 mph - 0.01 in   Overcast
9:49 PM 48.2 °F - 44.6 °F 87% 30.18 in 10.0 mi North 9.2 mph - 0.01 in Rain Light Rain
9:53 PM 48.0 °F - 45.0 °F 89% 30.17 in 8.0 mi North 9.2 mph - 0.02 in Rain Rain
10:19 PM 46.4 °F 41.1 °F 44.6 °F 93% 30.20 in 10.0 mi North 11.5 mph 28.8 mph 0.01 in Thunderstorm Overcast
10:46 PM 46.4 °F 45.2 °F 44.6 °F 93% 30.19 in 10.0 mi Variable 3.5 mph 19.6 mph 0.02 in Rain , Thunderstorm Light Rain
10:53 PM 46.0 °F 41.9 °F 45.0 °F 96% 30.18 in 10.0 mi NNE 8.1 mph - 0.02 in Rain , Thunderstorm Light Rain
11:17 PM 46.4 °F 41.5 °F 44.6 °F 93% 30.19 in 10.0 mi North 10.4 mph 18.4 mph 0.00 in Rain Light Rain
11:53 PM 46.0 °F 41.0 °F 44.1 °F 93% 30.18 in 10.0 mi NNE 10.4 mph 18.4 mph 0.00 in   Overcast